QPF
0.01 0.01 0.00 0.01 0.01 0.01 0.01 0.02 0.04 0.06 0.07 0.08 0.10 0.12 0.14 0.13 0.08 0.05 0.04 0.03 0.05 0.07 0.07 0.06 0.05 0.06 0.06 0.04 0.03 0.03 0.04 0.04 0.04 0.04 0.03 0.02 0.02 0.02 0.02 0.02 0.02 0.01 0.01
0.01 0.01 0.00 0.00 0.01 0.01 0.01 0.01 0.03 0.06 0.07 0.09 0.09 0.11 0.14 0.18 0.16 0.11 0.07 0.05 0.04 0.05 0.06 0.07 0.08 0.09 0.09 0.07 0.04 0.03 0.03 0.03 0.03 0.04 0.04 0.03 0.03 0.03 0.03 0.02 0.02 0.01 0.01
0.02 0.02 0.01 0.01 0.01 0.01 0.01 0.01 0.03 0.05 0.07 0.09 0.09 0.08 0.10 0.15 0.19 0.16 0.12 0.09 0.06 0.05 0.05 0.06 0.08 0.09 0.11 0.12 0.09 0.07 0.05 0.03 0.03 0.03 0.03 0.03 0.03 0.03 0.04 0.04 0.03 0.02 0.02
0.03 0.03 0.02 0.02 0.02 0.02 0.02 0.02 0.04 0.05 0.08 0.09 0.09 0.07 0.06 0.08 0.12 0.13 0.10 0.08 0.08 0.08 0.08 0.07 0.06 0.07 0.08 0.10 0.09 0.07 0.07 0.06 0.04 0.03 0.02 0.02 0.02 0.02 0.03 0.04 0.04 0.02 0.02
0.05 0.05 0.05 0.04 0.03 0.04 0.04 0.04 0.06 0.07 0.07 0.09 0.09 0.09 0.06 0.06 0.08 0.09 0.09 0.07 0.06 0.07 0.09 0.09 0.08 0.06 0.07 0.08 0.09 0.09 0.08 0.07 0.05 0.04 0.03 0.02 0.02 0.02 0.02 0.02 0.02 0.01 0.01
0.05 0.07 0.07 0.08 0.08 0.06 0.06 0.07 0.08 0.08 0.07 0.07 0.07 0.08 0.05 0.04 0.05 0.08 0.08 0.08 0.08 0.06 0.05 0.07 0.08 0.08 0.06 0.06 0.07 0.07 0.08 0.08 0.07 0.06 0.05 0.04 0.03 0.02 0.02 0.02 0.01 0.01 0.01
0.05 0.05 0.07 0.11 0.12 0.11 0.10 0.09 0.09 0.10 0.08 0.07 0.06 0.06 0.05 0.04 0.06 0.08 0.10 0.10 0.10 0.08 0.06 0.06 0.07 0.08 0.07 0.06 0.05 0.05 0.04 0.04 0.05 0.04 0.04 0.04 0.04 0.03 0.03 0.03 0.02 0.01 0.01
0.03 0.05 0.06 0.07 0.11 0.14 0.15 0.13 0.11 0.10 0.08 0.07 0.05 0.04 0.04 0.03 0.04 0.07 0.09 0.11 0.11 0.11 0.10 0.08 0.08 0.08 0.08 0.07 0.06 0.05 0.05 0.04 0.03 0.02 0.02 0.02 0.02 0.02 0.02 0.02 0.02 0.01 0.01
0.03 0.05 0.06 0.07 0.08 0.09 0.10 0.11 0.11 0.09 0.07 0.06 0.05 0.05 0.04 0.03 0.03 0.04 0.07 0.08 0.09 0.09 0.10 0.10 0.09 0.08 0.08 0.08 0.08 0.07 0.06 0.06 0.05 0.04 0.03 0.02 0.02 0.01 0.01 0.02 0.02 0.02 0.02
0.04 0.04 0.04 0.07 0.06 0.05 0.04 0.05 0.07 0.07 0.06 0.05 0.05 0.05 0.05 0.04 0.03 0.03 0.04 0.06 0.07 0.07 0.07 0.07 0.07 0.07 0.07 0.07 0.07 0.07 0.07 0.06 0.05 0.04 0.04 0.04 0.03 0.02 0.02 0.02 0.02 0.03 0.03
0.03 0.04 0.04 0.06 0.05 0.04 0.03 0.04 0.04 0.05 0.05 0.05 0.05 0.05 0.05 0.05 0.05 0.05 0.05 0.06 0.08 0.09 0.08 0.07 0.05 0.05 0.06 0.06 0.06 0.07 0.07 0.06 0.06 0.05 0.04 0.04 0.03 0.03 0.03 0.03 0.03 0.04 0.04
0.02 0.02 0.03 0.04 0.03 0.03 0.03 0.03 0.03 0.03 0.03 0.04 0.04 0.04 0.04 0.04 0.04 0.04 0.04 0.05 0.07 0.09 0.10 0.10 0.09 0.06 0.06 0.06 0.06 0.05 0.05 0.04 0.04 0.03 0.03 0.04 0.03 0.04 0.04 0.03 0.04 0.04 0.05
0.00 0.01 0.02 0.02 0.03 0.03 0.03 0.03 0.02 0.01 0.01 0.01 0.01 0.02 0.02 0.02 0.02 0.02 0.02 0.02 0.03 0.04 0.06 0.08 0.09 0.08 0.06 0.04 0.05 0.05 0.04 0.03 0.02 0.02 0.01 0.01 0.01 0.02 0.02 0.03 0.03 0.04 0.04
0.00 0.01 0.02 0.02 0.02 0.03 0.04 0.04 0.03 0.02 0.01 0.01 0.01 0.01 0.01 0.01 0.01 0.01 0.01 0.02 0.03 0.03 0.03 0.04 0.06 0.07 0.06 0.05 0.04 0.03 0.03 0.02 0.02 0.02 0.01 0.01 0.01 0.01 0.02 0.01 0.02 0.02 0.03
0.00 0.01 0.01 0.02 0.02 0.03 0.04 0.04 0.03 0.02 0.01 0.01 0.01 0.01 0.01 0.01 0.01 0.01 0.01 0.02 0.03 0.03 0.03 0.03 0.03 0.04 0.05 0.05 0.04 0.04 0.02 0.02 0.01 0.01 0.01 0.01 0.01 0.02 0.02 0.02 0.02 0.03 0.03
0.00 0.00 0.01 0.02 0.02 0.03 0.04 0.05 0.03 0.02 0.01 0.01 0.01 0.01 0.01 0.01 0.01 0.01 0.02 0.02 0.03 0.04 0.04 0.04 0.04 0.04 0.04 0.05 0.05 0.04 0.03 0.02 0.01 0.01 0.01 0.01 0.01 0.02 0.02 0.02 0.03 0.02 0.03
0.00 0.00 0.00 0.01 0.02 0.02 0.04 0.06 0.05 0.03 0.02 0.01 0.01 0.01 0.01 0.01 0.00 0.01 0.02 0.02 0.03 0.04 0.04 0.04 0.03 0.03 0.03 0.05 0.04 0.04 0.02 0.02 0.01 0.01 0.01 0.01 0.01 0.01 0.01 0.01 0.03 0.02 0.02
0.00 0.00 0.01 0.01 0.01 0.02 0.04 0.05 0.05 0.03 0.02 0.02 0.01 0.01 0.01 0.01 0.01 0.01 0.01 0.03 0.04 0.04 0.03 0.03 0.03 0.03 0.03 0.03 0.04 0.04 0.03 0.02 0.02 0.01 0.01 0.01 0.01 0.01 0.01 0.01 0.02 0.02 0.02
0.01 0.01 0.01 0.01 0.02 0.02 0.03 0.05 0.05 0.03 0.03 0.02 0.02 0.01 0.01 0.01 0.01 0.02 0.02 0.02 0.04 0.05 0.04 0.03 0.03 0.04 0.04 0.03 0.03 0.04 0.03 0.03 0.02 0.02 0.01 0.01 0.01 0.01 0.02 0.02 0.02 0.02 0.02
0.01 0.01 0.01 0.02 0.02 0.02 0.03 0.04 0.05 0.04 0.03 0.03 0.02 0.01 0.01 0.01 0.01 0.02 0.02 0.02 0.03 0.04 0.05 0.04 0.03 0.03 0.04 0.04 0.04 0.04 0.04 0.03 0.03 0.02 0.02 0.02 0.02 0.02 0.03 0.02 0.02 0.02 0.03
0.00 0.01 0.01 0.02 0.03 0.03 0.04 0.04 0.04 0.04 0.03 0.03 0.03 0.02 0.01 0.01 0.01 0.02 0.02 0.02 0.03 0.04 0.05 0.05 0.05 0.03 0.03 0.04 0.04 0.04 0.04 0.03 0.03 0.03 0.03 0.02 0.03 0.03 0.03 0.03 0.03 0.04 0.04
0.00 0.01 0.01 0.01 0.02 0.04 0.04 0.04 0.05 0.04 0.04 0.03 0.03 0.02 0.02 0.01 0.01 0.02 0.03 0.02 0.03 0.04 0.05 0.05 0.05 0.05 0.04 0.04 0.05 0.04 0.04 0.03 0.03 0.02 0.03 0.03 0.05 0.04 0.04 0.04 0.04 0.05 0.05
0.01 0.01 0.02 0.02 0.02 0.03 0.04 0.06 0.06 0.05 0.05 0.04 0.03 0.03 0.03 0.02 0.02 0.03 0.04 0.03 0.03 0.04 0.05 0.05 0.05 0.05 0.05 0.05 0.05 0.05 0.04 0.03 0.02 0.02 0.03 0.04 0.05 0.05 0.05 0.05 0.05 0.05 0.04
0.01 0.01 0.02 0.03 0.02 0.03 0.04 0.06 0.06 0.06 0.06 0.06 0.04 0.03 0.04 0.04 0.04 0.04 0.05 0.04 0.04 0.04 0.05 0.06 0.05 0.04 0.05 0.05 0.06 0.06 0.06 0.05 0.05 0.04 0.05 0.05 0.05 0.05 0.06 0.06 0.05 0.04 0.05
0.01 0.01 0.02 0.04 0.03 0.02 0.03 0.05 0.05 0.05 0.05 0.05 0.04 0.04 0.04 0.04 0.05 0.05 0.05 0.05 0.05 0.05 0.06 0.06 0.06 0.06 0.05 0.05 0.06 0.06 0.06 0.06 0.05 0.05 0.05 0.05 0.05 0.05 0.05 0.05 0.04 0.04 0.05
0.01 0.02 0.02 0.03 0.03 0.02 0.02 0.03 0.03 0.04 0.04 0.05 0.04 0.04 0.04 0.04 0.04 0.04 0.05 0.06 0.07 0.07 0.07 0.07 0.07 0.07 0.07 0.07 0.07 0.07 0.07 0.07 0.06 0.06 0.05 0.04 0.04 0.05 0.04 0.04 0.04 0.04 0.05
MSLP
1016.84 1017.12 1017.38 1017.62 1017.84 1018.06 1018.31 1018.61 1019.00 1019.46 1020.00 1020.57 1021.15 1021.68 1022.14 1022.49 1022.74 1022.89 1022.98 1023.03 1023.08 1023.14 1023.24 1023.36 1023.50 1023.65 1023.79 1023.91 1024.02 1024.12 1024.23 1024.36 1024.50 1024.67 1024.84 1025.00 1025.12 1025.21 1025.24 1025.22 1025.17 1025.10 1025.03
1016.21 1016.52 1016.80 1017.04 1017.25 1017.45 1017.68 1017.98 1018.36 1018.85 1019.43 1020.07 1020.71 1021.32 1021.86 1022.28 1022.60 1022.81 1022.94 1023.03 1023.12 1023.21 1023.34 1023.48 1023.64 1023.79 1023.93 1024.04 1024.13 1024.22 1024.31 1024.42 1024.55 1024.71 1024.87 1025.02 1025.14 1025.22 1025.24 1025.21 1025.15 1025.08 1025.02
1015.31 1015.67 1015.99 1016.27 1016.50 1016.72 1016.95 1017.24 1017.63 1018.14 1018.74 1019.42 1020.12 1020.80 1021.40 1021.90 1022.28 1022.56 1022.76 1022.92 1023.06 1023.21 1023.38 1023.56 1023.74 1023.90 1024.04 1024.14 1024.22 1024.29 1024.36 1024.45 1024.58 1024.72 1024.89 1025.04 1025.16 1025.24 1025.25 1025.22 1025.15 1025.07 1025.00
1014.25 1014.67 1015.06 1015.39 1015.67 1015.91 1016.16 1016.46 1016.85 1017.36 1017.98 1018.68 1019.41 1020.13 1020.78 1021.34 1021.79 1022.14 1022.42 1022.66 1022.87 1023.09 1023.32 1023.56 1023.77 1023.96 1024.11 1024.22 1024.29 1024.35 1024.41 1024.50 1024.62 1024.77 1024.94 1025.11 1025.24 1025.33 1025.34 1025.31 1025.23 1025.13 1025.03
1013.17 1013.64 1014.10 1014.50 1014.83 1015.11 1015.38 1015.68 1016.08 1016.58 1017.19 1017.88 1018.62 1019.35 1020.03 1020.63 1021.14 1021.56 1021.91 1022.23 1022.53 1022.84 1023.15 1023.44 1023.72 1023.95 1024.13 1024.26 1024.34 1024.41 1024.48 1024.57 1024.71 1024.87 1025.06 1025.25 1025.41 1025.51 1025.54 1025.51 1025.42 1025.31 1025.18
1012.19 1012.71 1013.23 1013.68 1014.05 1014.36 1014.64 1014.95 1015.32 1015.80 1016.39 1017.05 1017.77 1018.49 1019.18 1019.80 1020.35 1020.82 1021.25 1021.65 1022.04 1022.44 1022.84 1023.22 1023.57 1023.87 1024.10 1024.27 1024.39 1024.48 1024.57 1024.68 1024.84 1025.03 1025.24 1025.46 1025.64 1025.78 1025.83 1025.81 1025.73 1025.60 1025.44
1011.41 1011.96 1012.50 1012.98 1013.37 1013.68 1013.95 1014.24 1014.59 1015.03 1015.57 1016.20 1016.88 1017.58 1018.26 1018.89 1019.46 1019.99 1020.48 1020.96 1021.44 1021.93 1022.43 1022.90 1023.34 1023.71 1024.02 1024.24 1024.41 1024.54 1024.67 1024.81 1024.99 1025.20 1025.44 1025.69 1025.91 1026.07 1026.16 1026.16 1026.08 1025.95 1025.76
1010.88 1011.41 1011.93 1012.39 1012.76 1013.04 1013.28 1013.53 1013.84 1014.23 1014.73 1015.32 1015.96 1016.64 1017.31 1017.95 1018.55 1019.12 1019.67 1020.22 1020.78 1021.36 1021.95 1022.51 1023.04 1023.50 1023.88 1024.18 1024.40 1024.58 1024.74 1024.92 1025.12 1025.36 1025.62 1025.88 1026.13 1026.33 1026.44 1026.47 1026.41 1026.27 1026.06
1010.57 1011.04 1011.50 1011.89 1012.19 1012.41 1012.59 1012.78 1013.04 1013.39 1013.85 1014.41 1015.04 1015.70 1016.37 1017.03 1017.66 1018.27 1018.88 1019.49 1020.13 1020.79 1021.45 1022.10 1022.71 1023.24 1023.70 1024.06 1024.34 1024.57 1024.77 1024.96 1025.18 1025.43 1025.71 1025.99 1026.25 1026.47 1026.61 1026.66 1026.61 1026.47 1026.25
1010.43 1010.80 1011.15 1011.43 1011.61 1011.74 1011.84 1011.97 1012.18 1012.50 1012.94 1013.50 1014.13 1014.81 1015.50 1016.19 1016.86 1017.52 1018.18 1018.85 1019.54 1020.26 1020.98 1021.69 1022.36 1022.96 1023.47 1023.89 1024.22 1024.48 1024.71 1024.92 1025.15 1025.40 1025.68 1025.96 1026.23 1026.46 1026.61 1026.67 1026.63 1026.49 1026.26
1010.36 1010.61 1010.81 1010.94 1010.99 1011.00 1011.01 1011.08 1011.26 1011.57 1012.03 1012.60 1013.27 1014.00 1014.74 1015.48 1016.20 1016.91 1017.61 1018.33 1019.06 1019.82 1020.58 1021.32 1022.02 1022.66 1023.20 1023.65 1024.01 1024.31 1024.55 1024.78 1025.01 1025.25 1025.52 1025.79 1026.05 1026.27 1026.42 1026.48 1026.44 1026.29 1026.04
1010.31 1010.40 1010.43 1010.40 1010.31 1010.20 1010.12 1010.15 1010.32 1010.65 1011.14 1011.77 1012.51 1013.30 1014.11 1014.91 1015.69 1016.44 1017.19 1017.94 1018.70 1019.46 1020.23 1020.98 1021.69 1022.33 1022.89 1023.35 1023.73 1024.04 1024.29 1024.52 1024.75 1024.99 1025.24 1025.49 1025.73 1025.93 1026.06 1026.11 1026.05 1025.89 1025.63
1010.20 1010.14 1010.01 1009.81 1009.58 1009.37 1009.24 1009.24 1009.41 1009.79 1010.34 1011.04 1011.86 1012.72 1013.61 1014.48 1015.32 1016.12 1016.89 1017.66 1018.42 1019.18 1019.93 1020.66 1021.35 1021.97 1022.52 1022.98 1023.36 1023.67 1023.94 1024.17 1024.40 1024.64 1024.87 1025.11 1025.32 1025.49 1025.59 1025.61 1025.53 1025.35 1025.07
1010.03 1009.82 1009.54 1009.20 1008.86 1008.56 1008.39 1008.39 1008.61 1009.04 1009.66 1010.44 1011.34 1012.28 1013.23 1014.16 1015.04 1015.87 1016.67 1017.43 1018.18 1018.92 1019.64 1020.33 1020.99 1021.58 1022.10 1022.55 1022.92 1023.24 1023.51 1023.75 1023.99 1024.22 1024.45 1024.66 1024.85 1024.99 1025.06 1025.05 1024.94 1024.74 1024.44
1009.81 1009.47 1009.06 1008.61 1008.18 1007.84 1007.66 1007.68 1007.94 1008.43 1009.12 1009.98 1010.93 1011.93 1012.93 1013.90 1014.80 1015.65 1016.44 1017.20 1017.93 1018.64 1019.32 1019.97 1020.58 1021.13 1021.62 1022.05 1022.42 1022.73 1023.01 1023.27 1023.52 1023.76 1023.99 1024.19 1024.36 1024.48 1024.52 1024.47 1024.34 1024.12 1023.81
1009.56 1009.12 1008.61 1008.08 1007.60 1007.25 1007.08 1007.13 1007.44 1007.98 1008.73 1009.63 1010.62 1011.65 1012.66 1013.64 1014.55 1015.39 1016.18 1016.92 1017.62 1018.29 1018.94 1019.55 1020.12 1020.63 1021.09 1021.50 1021.86 1022.18 1022.48 1022.75 1023.01 1023.27 1023.50 1023.71 1023.86 1023.96 1023.98 1023.91 1023.76 1023.53 1023.24
1009.33 1008.80 1008.22 1007.65 1007.15 1006.80 1006.66 1006.75 1007.10 1007.68 1008.45 1009.36 1010.36 1011.38 1012.38 1013.33 1014.23 1015.05 1015.82 1016.54 1017.23 1017.88 1018.49 1019.07 1019.60 1020.09 1020.53 1020.92 1021.27 1021.60 1021.90 1022.19 1022.48 1022.75 1022.99 1023.20 1023.36 1023.44 1023.45 1023.37 1023.22 1023.00 1022.72
1009.15 1008.56 1007.94 1007.35 1006.85 1006.52 1006.41 1006.53 1006.91 1007.50 1008.27 1009.16 1010.12 1011.10 1012.06 1012.97 1013.83 1014.63 1015.38 1016.08 1016.75 1017.39 1017.99 1018.54 1019.06 1019.52 1019.94 1020.32 1020.66 1020.98 1021.29 1021.60 1021.90 1022.19 1022.44 1022.66 1022.82 1022.91 1022.92 1022.85 1022.70 1022.50 1022.26
1009.04 1008.43 1007.78 1007.19 1006.71 1006.40 1006.32 1006.46 1006.84 1007.43 1008.16 1009.00 1009.90 1010.81 1011.71 1012.56 1013.37 1014.14 1014.87 1015.57 1016.23 1016.86 1017.45 1018.00 1018.50 1018.95 1019.35 1019.71 1020.04 1020.36 1020.67 1020.98 1021.29 1021.58 1021.86 1022.09 1022.26 1022.36 1022.38 1022.33 1022.21 1022.04 1021.84
1009.05 1008.41 1007.77 1007.18 1006.72 1006.44 1006.38 1006.53 1006.90 1007.44 1008.12 1008.89 1009.71 1010.54 1011.35 1012.14 1012.91 1013.64 1014.35 1015.04 1015.70 1016.33 1016.92 1017.46 1017.95 1018.38 1018.76 1019.10 1019.42 1019.72 1020.02 1020.33 1020.64 1020.95 1021.23 1021.48 1021.67 1021.79 1021.84 1021.82 1021.73 1021.61 1021.45
1009.18 1008.54 1007.91 1007.34 1006.91 1006.65 1006.59 1006.73 1007.07 1007.56 1008.16 1008.85 1009.57 1010.31 1011.05 1011.77 1012.48 1013.18 1013.87 1014.55 1015.20 1015.83 1016.41 1016.94 1017.41 1017.82 1018.18 1018.50 1018.79 1019.07 1019.36 1019.66 1019.97 1020.28 1020.58 1020.84 1021.06 1021.22 1021.30 1021.32 1021.28 1021.20 1021.08
1009.45 1008.83 1008.21 1007.67 1007.26 1007.01 1006.95 1007.07 1007.35 1007.78 1008.30 1008.89 1009.52 1010.17 1010.83 1011.48 1012.15 1012.81 1013.47 1014.12 1014.76 1015.37 1015.93 1016.44 1016.88 1017.26 1017.58 1017.87 1018.14 1018.40 1018.68 1018.97 1019.28 1019.60 1019.92 1020.21 1020.46 1020.66 1020.79 1020.86 1020.88 1020.84 1020.76
1009.85 1009.26 1008.68 1008.17 1007.77 1007.53 1007.45 1007.53 1007.76 1008.11 1008.54 1009.04 1009.58 1010.14 1010.72 1011.31 1011.91 1012.53 1013.15 1013.77 1014.37 1014.94 1015.46 1015.92 1016.32 1016.67 1016.96 1017.21 1017.46 1017.70 1017.97 1018.26 1018.58 1018.91 1019.26 1019.58 1019.88 1020.13 1020.33 1020.46 1020.53 1020.54 1020.51
1010.36 1009.81 1009.27 1008.80 1008.42 1008.17 1008.07 1008.10 1008.27 1008.53 1008.88 1009.28 1009.73 1010.21 1010.71 1011.23 1011.77 1012.33 1012.90 1013.46 1014.00 1014.51 1014.97 1015.38 1015.73 1016.02 1016.27 1016.50 1016.72 1016.96 1017.23 1017.53 1017.86 1018.23 1018.60 1018.98 1019.33 1019.64 1019.90 1020.10 1020.24 1020.31 1020.32
1010.94 1010.45 1009.95 1009.51 1009.15 1008.89 1008.76 1008.74 1008.83 1009.01 1009.27 1009.59 1009.95 1010.35 1010.77 1011.23 1011.70 1012.19 1012.68 1013.16 1013.63 1014.06 1014.45 1014.78 1015.07 1015.31 1015.53 1015.73 1015.94 1016.18 1016.45 1016.77 1017.14 1017.54 1017.96 1018.38 1018.79 1019.17 1019.50 1019.77 1019.98 1020.12 1020.18
1011.53 1011.09 1010.65 1010.24 1009.89 1009.62 1009.45 1009.37 1009.39 1009.49 1009.67 1009.90 1010.18 1010.51 1010.86 1011.24 1011.64 1012.05 1012.46 1012.86 1013.23 1013.57 1013.87 1014.13 1014.35 1014.54 1014.72 1014.91 1015.12 1015.36 1015.66 1016.00 1016.40 1016.84 1017.30 1017.77 1018.24 1018.67 1019.08 1019.42 1019.70 1019.91 1020.03
Thickness
5583 5584 5586 5588 5590 5592 5594 5598 5600 5602 5604 5605 5606 5607 5608 5608 5608 5608 5609 5609 5609 5610 5610 5610 5609 5609 5609 5608 5608 5607 5607 5606 5607 5607 5607 5609 5611 5611 5611 5610 5609 5608 5608
5574 5576 5577 5579 5580 5582 5585 5587 5590 5592 5594 5596 5597 5598 5599 5598 5599 5599 5599 5600 5600 5601 5602 5602 5601 5601 5600 5600 5599 5599 5597 5597 5597 5596 5595 5596 5600 5602 5603 5601 5600 5599 5598
5567 5568 5569 5569 5570 5572 5575 5579 5580 5583 5585 5586 5587 5587 5589 5589 5589 5590 5590 5590 5591 5592 5592 5592 5593 5593 5592 5591 5591 5590 5589 5587 5587 5587 5586 5585 5587 5588 5591 5591 5591 5590 5589
5559 5559 5560 5560 5561 5563 5566 5568 5571 5573 5575 5576 5577 5578 5579 5580 5580 5580 5580 5580 5581 5582 5583 5583 5584 5584 5584 5583 5582 5582 5581 5580 5578 5577 5577 5577 5577 5576 5578 5580 5580 5581 5580
5550 5550 5550 5551 5553 5554 5556 5558 5561 5564 5565 5566 5568 5569 5570 5571 5571 5571 5571 5572 5572 5573 5574 5574 5575 5575 5575 5574 5573 5573 5572 5572 5571 5569 5568 5567 5566 5566 5566 5568 5569 5570 5571
5540 5540 5540 5541 5542 5543 5545 5548 5552 5554 5556 5557 5558 5559 5561 5562 5562 5562 5562 5562 5563 5564 5565 5565 5564 5565 5565 5564 5564 5564 5562 5563 5562 5561 5560 5560 5558 5557 5556 5557 5558 5558 5560
5529 5529 5529 5529 5530 5531 5533 5537 5541 5544 5546 5547 5548 5549 5552 5554 5555 5554 5554 5554 5554 5555 5555 5555 5555 5555 5555 5555 5554 5554 5553 5553 5553 5552 5552 5552 5551 5549 5549 5548 5548 5548 5550
5519 5519 5519 5519 5520 5522 5523 5526 5529 5533 5535 5536 5537 5539 5542 5544 5545 5546 5546 5546 5546 5546 5545 5545 5545 5545 5545 5545 5544 5544 5544 5543 5543 5543 5542 5541 5541 5540 5539 5539 5537 5537 5539
5511 5510 5510 5509 5510 5512 5514 5516 5518 5521 5524 5525 5527 5529 5532 5534 5535 5536 5536 5536 5536 5536 5536 5537 5537 5536 5536 5535 5535 5535 5534 5534 5533 5532 5531 5530 5530 5530 5529 5529 5528 5528 5529
5501 5500 5500 5500 5501 5502 5504 5506 5509 5512 5514 5515 5517 5520 5521 5523 5524 5525 5526 5527 5527 5527 5527 5528 5527 5526 5526 5526 5525 5525 5524 5523 5523 5522 5520 5520 5520 5520 5519 5519 5519 5519 5519
5492 5491 5491 5491 5492 5493 5495 5497 5499 5502 5503 5505 5506 5508 5509 5511 5513 5514 5515 5516 5517 5517 5518 5518 5517 5516 5517 5516 5515 5515 5514 5513 5512 5512 5511 5511 5510 5509 5509 5509 5509 5508 5508
5485 5483 5483 5483 5484 5485 5486 5488 5490 5492 5493 5495 5496 5497 5499 5500 5501 5503 5504 5506 5507 5507 5508 5507 5507 5506 5506 5505 5505 5504 5504 5503 5502 5502 5502 5502 5501 5500 5500 5499 5499 5499 5498
5479 5477 5476 5476 5477 5478 5479 5481 5482 5483 5485 5486 5487 5488 5489 5490 5491 5492 5493 5495 5496 5496 5497 5497 5496 5496 5495 5495 5494 5493 5493 5492 5492 5491 5491 5491 5491 5490 5490 5489 5489 5489 5489
5473 5471 5470 5470 5470 5471 5473 5474 5475 5476 5478 5478 5479 5479 5480 5481 5482 5482 5483 5484 5485 5485 5485 5485 5485 5485 5484 5485 5484 5483 5482 5482 5481 5481 5481 5481 5481 5481 5481 5480 5480 5479 5479
5466 5465 5464 5463 5463 5464 5465 5466 5467 5468 5469 5469 5469 5470 5471 5471 5472 5472 5473 5473 5473 5473 5473 5474 5473 5473 5473 5474 5474 5473 5472 5472 5471 5471 5471 5471 5472 5472 5471 5471 5471 5470 5469
5460 5459 5458 5457 5457 5458 5458 5458 5459 5459 5459 5460 5460 5461 5462 5462 5462 5463 5463 5463 5463 5462 5462 5462 5462 5463 5463 5463 5464 5463 5462 5462 5462 5462 5462 5461 5461 5461 5462 5461 5462 5461 5461
5452 5451 5450 5451 5452 5452 5452 5452 5452 5451 5451 5451 5452 5452 5453 5453 5453 5453 5453 5453 5452 5451 5451 5451 5451 5451 5452 5452 5454 5454 5453 5453 5452 5452 5452 5452 5452 5451 5451 5451 5451 5451 5451
5445 5444 5443 5443 5443 5444 5444 5444 5444 5443 5443 5443 5443 5444 5444 5444 5444 5443 5442 5442 5441 5440 5440 5440 5440 5440 5441 5442 5443 5443 5443 5443 5443 5443 5443 5442 5443 5442 5442 5442 5441 5442 5442
5436 5435 5435 5434 5435 5435 5436 5436 5435 5435 5436 5437 5437 5436 5436 5435 5434 5434 5433 5432 5430 5430 5429 5429 5429 5430 5430 5432 5433 5434 5433 5433 5434 5435 5435 5434 5434 5435 5434 5433 5432 5433 5432
5427 5426 5426 5426 5426 5427 5427 5427 5428 5428 5429 5430 5431 5430 5428 5427 5427 5426 5424 5422 5420 5420 5419 5419 5419 5420 5420 5422 5424 5425 5425 5425 5426 5426 5426 5425 5426 5426 5425 5423 5423 5423 5422
5419 5419 5418 5418 5419 5419 5418 5418 5419 5420 5422 5422 5422 5422 5421 5420 5419 5417 5415 5413 5411 5410 5409 5409 5410 5410 5411 5413 5415 5417 5417 5417 5418 5418 5417 5416 5416 5416 5415 5415 5414 5414 5412
5411 5410 5409 5410 5410 5410 5410 5410 5411 5412 5412 5413 5413 5413 5412 5411 5411 5408 5406 5404 5402 5401 5400 5400 5401 5401 5403 5405 5407 5409 5410 5410 5409 5409 5408 5407 5406 5406 5405 5404 5404 5403 5401
5403 5403 5401 5401 5401 5401 5401 5401 5402 5403 5403 5403 5404 5404 5404 5403 5402 5400 5398 5396 5394 5393 5393 5393 5394 5395 5396 5396 5398 5400 5401 5401 5401 5401 5400 5398 5397 5396 5394 5393 5392 5391 5389
5395 5394 5393 5392 5392 5392 5392 5393 5394 5394 5394 5394 5394 5395 5394 5393 5392 5391 5390 5388 5387 5386 5386 5387 5388 5388 5388 5388 5389 5390 5391 5391 5391 5390 5389 5387 5386 5384 5383 5381 5379 5378 5378
5387 5386 5385 5384 5384 5384 5385 5385 5386 5386 5385 5385 5386 5386 5386 5384 5383 5382 5381 5381 5381 5380 5380 5381 5381 5380 5381 5382 5383 5383 5382 5382 5381 5378 5376 5374 5373 5372 5370 5368 5368 5367 5367
5379 5379 5378 5377 5377 5377 5377 5378 5378 5379 5378 5378 5378 5377 5377 5376 5375 5374 5373 5372 5372 5374 5374 5374 5373 5373 5374 5375 5375 5374 5374 5373 5371 5368 5366 5364 5363 5361 5359 5358 5358 5357 5356